Theta_e
350 351 350 350 350 350 350 351 352 353 354 355 355 355 355 355 355 356 356 355 355 355 355 354 354 354 354 354 354 353 354 354 354 354 353 353 353 353 351 349 349 349 350 352 351 351 352 352 352 352 351 351 351 351 350 351 351 351 351 351 352 354 354
350 350 350 350 350 350 351 352 353 353 353 354 355 354 355 356 356 357 356 356 356 356 355 355 354 355 354 354 354 354 354 354 353 353 354 353 352 352 351 349 348 348 348 350 350 350 351 351 351 351 351 351 351 351 350 350 350 351 352 351 353 356 356
349 350 350 350 350 351 351 352 353 353 353 353 354 354 355 356 357 357 356 357 356 356 356 355 355 355 354 355 355 354 354 354 354 353 353 353 352 352 352 350 349 349 348 349 350 350 351 351 351 351 351 351 351 351 350 350 350 351 352 351 352 356 358
348 349 349 350 350 351 351 351 352 352 352 353 353 354 355 356 357 357 357 356 356 356 357 356 356 356 355 355 355 355 354 354 354 353 353 353 353 353 353 352 350 350 350 350 350 351 351 351 351 351 351 351 351 351 350 350 351 351 352 352 353 357 358
348 348 349 350 350 351 350 350 352 352 352 352 353 353 355 355 356 356 356 356 356 356 356 356 356 356 356 356 355 355 355 354 354 354 354 354 354 353 353 352 351 351 351 350 351 351 351 351 351 351 351 351 351 351 350 350 350 351 352 353 355 358 358
347 348 349 350 349 350 350 349 351 352 351 352 352 353 354 354 355 355 356 356 356 356 356 356 356 356 357 357 356 356 355 355 354 354 354 354 354 354 352 352 352 352 352 351 351 351 351 351 351 352 351 351 351 351 351 350 350 351 352 353 355 358 358
346 348 349 349 349 349 349 349 350 351 351 351 352 353 353 353 354 354 355 356 356 356 357 356 356 357 357 357 357 357 356 356 355 354 355 355 354 353 353 353 352 352 352 352 351 351 351 351 351 351 351 351 351 351 350 350 349 351 352 352 354 357 358
346 348 347 348 348 348 348 349 350 350 351 351 351 352 352 352 353 354 354 355 355 356 356 356 356 357 357 357 357 357 356 356 356 355 355 355 355 354 354 353 353 351 352 352 351 351 351 351 351 350 350 350 350 350 349 349 349 350 352 352 353 356 357
345 349 348 347 346 346 348 348 350 351 351 351 351 352 352 352 353 354 354 354 355 356 356 356 356 356 357 357 357 357 357 356 356 356 356 355 355 355 354 354 353 352 352 352 352 351 351 350 351 351 350 350 350 349 349 349 348 349 351 352 352 354 355
345 349 349 347 346 347 348 348 350 352 351 352 352 352 352 352 353 353 354 354 354 355 355 355 356 356 357 357 357 357 357 357 357 356 356 356 355 355 354 354 354 353 352 352 353 353 351 351 351 351 350 350 350 349 349 349 349 349 350 350 351 352 354
344 350 351 349 348 349 348 350 352 353 354 354 352 352 352 352 353 353 354 354 354 354 355 355 355 356 356 356 356 357 357 357 357 356 356 356 355 355 355 354 354 354 353 353 353 353 353 351 351 351 350 350 350 349 349 349 350 350 350 351 351 352 353
342 348 352 351 350 350 350 352 354 356 356 354 351 352 353 352 353 353 353 354 354 354 355 355 355 356 356 356 356 357 357 357 357 356 356 356 355 355 355 354 354 354 353 353 353 354 354 353 352 352 351 350 350 350 349 349 350 350 350 352 352 352 352
343 345 349 351 351 352 355 357 357 357 357 354 351 351 352 352 352 352 354 354 354 354 355 355 355 355 356 356 356 357 358 357 357 356 356 356 356 355 355 354 354 354 354 354 354 354 354 354 354 352 351 350 350 350 350 349 350 350 350 351 353 352 352
342 342 346 348 350 354 357 358 358 357 355 353 352 351 352 352 352 353 354 354 353 354 355 355 355 355 356 356 356 357 357 357 357 356 356 356 356 355 355 355 354 354 354 354 354 354 354 354 355 354 352 352 351 351 351 351 350 351 351 351 352 353 353
334 336 342 346 350 354 356 357 358 358 356 354 353 352 352 352 352 353 354 354 354 354 355 355 356 356 356 356 356 357 357 356 356 356 356 356 355 355 355 355 354 354 354 354 354 354 354 354 355 355 355 354 354 353 353 353 353 352 352 351 352 353 354
329 329 335 342 348 352 354 355 357 358 358 356 354 353 352 352 353 353 353 353 354 354 355 355 356 356 356 356 357 357 355 355 355 356 356 356 355 355 355 355 355 355 354 354 354 354 354 354 355 355 355 355 355 355 355 355 354 352 351 351 351 353 355
334 329 330 336 344 349 352 354 356 358 358 357 355 354 353 353 352 352 352 353 354 354 355 355 356 356 356 356 357 356 355 355 356 356 356 356 355 355 355 354 355 355 354 354 354 354 354 354 355 355 355 355 356 356 356 355 353 351 350 349 349 352 355
349 338 332 332 338 347 351 351 354 357 355 354 355 354 353 354 353 352 352 353 353 354 354 355 355 356 356 357 357 355 356 356 356 356 356 355 355 354 354 354 354 354 355 354 354 355 355 355 355 355 355 355 355 356 356 355 353 350 349 349 349 350 353
356 347 338 334 336 342 348 349 351 354 354 353 354 353 353 353 352 353 353 353 353 353 353 354 355 356 356 356 357 356 356 356 356 356 356 355 355 354 354 354 354 355 355 355 355 355 355 355 355 355 355 355 356 356 356 356 354 352 350 349 349 349 351
358 351 341 337 336 338 345 350 351 353 355 355 353 353 353 352 353 353 354 354 354 354 355 356 355 356 357 356 357 357 356 356 356 356 356 355 354 355 355 355 355 355 355 355 355 355 355 355 355 356 356 355 356 356 356 356 355 353 352 350 350 350 351
358 354 345 340 341 343 348 352 353 353 355 354 353 353 354 353 353 354 354 355 354 354 355 356 356 356 357 357 357 357 356 357 357 356 357 356 355 355 356 356 355 356 355 355 356 356 356 355 355 356 356 356 356 356 356 355 354 353 353 352 351 351 352
358 357 352 345 344 348 352 352 351 352 354 353 352 353 353 353 353 353 354 355 355 356 356 356 357 357 357 357 357 356 357 357 357 357 357 357 356 356 356 357 356 356 356 356 356 356 356 356 356 356 356 356 355 356 356 355 354 353 352 351 351 352 352
355 357 355 348 345 351 353 352 352 354 354 353 352 352 353 353 353 354 356 356 356 357 357 357 358 358 357 357 357 357 357 357 357 358 358 358 358 357 357 357 357 356 356 356 356 356 356 356 356 356 356 356 356 356 356 356 354 353 352 352 352 351 352
354 356 355 349 346 351 353 353 353 354 353 353 353 353 354 354 355 356 358 357 357 358 358 358 358 358 358 358 358 357 357 357 358 358 358 358 358 358 358 358 357 357 357 357 356 356 357 356 356 357 357 356 356 356 356 356 356 354 353 352 352 352 351
354 355 356 353 349 349 352 355 354 353 354 354 353 354 354 355 356 357 358 359 358 358 358 358 359 359 359 359 358 359 358 358 358 358 358 359 359 358 358 358 358 358 358 357 357 357 357 357 357 357 357 357 357 356 356 356 356 355 354 353 352 352 351
352 353 356 356 354 352 354 356 356 354 354 355 354 354 353 354 355 357 358 359 358 358 359 359 359 360 360 359 359 360 359 359 359 359 359 359 359 359 359 359 358 359 359 358 358 357 358 358 358 358 358 357 357 357 356 356 356 356 355 354 353 353 352
351 353 355 357 359 358 355 355 355 354 354 354 354 353 354 355 356 358 360 360 359 359 359 360 361 361 361 361 361 361 360 360 360 360 359 360 360 360 360 360 359 359 359 359 359 358 359 359 358 359 358 358 358 358 357 357 357 356 356 355 354 353 352
349 352 354 356 358 359 359 358 358 356 355 354 353 354 355 356 357 359 360 359 360 360 360 360 361 361 362 362 362 362 362 361 361 361 361 361 361 361 361 361 360 360 360 360 360 360 360 360 360 359 359 359 359 358 358 358 357 356 356 355 355 354 353
344 347 351 354 355 357 360 361 361 360 357 354 353 354 355 355 359 360 360 360 360 360 359 359 359 360 362 363 362 363 363 363 363 362 361 362 363 363 362 362 361 361 361 361 361 361 361 361 361 360 360 360 360 359 359 359 358 357 356 355 355 354 354
341 343 347 351 354 355 357 360 361 361 360 357 357 357 356 357 360 361 361 361 359 357 357 357 357 360 361 363 363 364 364 364 364 363 363 364 364 363 363 364 363 363 363 362 362 362 361 361 361 360 360 361 361 361 361 360 359 358 356 356 355 355 355
340 342 344 348 352 354 355 358 359 359 361 361 361 361 360 361 363 364 364 361 357 356 356 356 356 359 361 362 363 363 363 364 365 364 364 365 364 364 364 365 364 364 363 363 362 362 362 362 362 361 362 361 361 362 362 361 360 359 358 357 356 355 355
339 341 344 346 349 352 353 355 357 357 358 360 360 361 363 363 364 364 363 360 356 356 356 356 357 359 361 362 364 363 363 365 365 365 366 365 365 365 365 365 365 365 364 364 363 362 363 363 362 362 362 362 362 363 363 363 362 361 360 358 357 356 356
337 340 343 345 347 350 352 353 355 356 356 357 357 359 361 362 363 363 361 360 360 358 357 357 358 359 361 363 364 363 364 365 365 366 366 366 365 366 365 366 366 365 365 365 364 363 363 363 363 363 363 363 363 364 363 364 363 362 361 360 358 356 355
336 338 341 343 346 349 351 352 354 354 354 355 356 356 358 359 361 362 364 364 364 363 360 359 359 359 361 362 362 362 364 365 366 366 367 367 367 367 366 367 366 366 366 365 365 364 364 364 363 363 363 363 364 364 364 364 364 363 362 361 359 358 357
335 337 339 341 345 348 350 352 353 353 352 353 354 354 355 356 357 360 364 366 367 367 367 366 364 364 363 363 363 362 362 363 365 365 366 368 367 366 366 366 366 366 366 366 365 364 364 365 365 364 364 364 364 364 365 365 364 363 362 361 359 359 358
334 337 337 339 343 347 349 351 352 352 352 351 352 352 353 353 354 356 359 363 366 368 368 368 368 368 366 366 366 365 364 364 365 365 366 365 364 362 361 361 363 365 366 365 365 364 363 364 364 364 364 364 364 364 364 364 364 363 361 361 360 358 358
333 335 336 337 340 343 347 349 350 350 350 350 351 351 351 352 352 353 355 358 361 364 366 368 370 370 369 368 368 367 366 366 366 366 365 362 360 358 357 356 357 359 361 363 363 363 362 363 363 363 363 364 364 364 363 362 362 362 361 360 359 358 358
332 334 334 335 337 340 342 345 346 348 348 348 349 350 350 350 350 351 353 355 356 360 362 365 368 370 369 369 367 366 366 366 365 364 362 359 357 357 356 354 353 352 354 358 361 362 361 361 362 362 361 362 362 362 361 361 360 360 359 359 359 358 357
Wind_Speed
15 16 16 16 17 18 18 19 22 26 27 29 31 33 33 32 32 31 30 33 34 32 33 35 33 33 33 34 34 34 33 31 30 30 28 28 27 27 30 31 30 29 28 27 29 30 30 29 27 26 25 24 23 22 21 19 18 17 16 15 12 11 11
15 15 16 16 17 19 19 20 23 26 27 28 31 33 34 33 32 32 30 32 35 34 34 35 34 34 34 34 32 33 33 32 31 31 28 28 30 31 31 32 32 32 31 30 29 30 30 29 27 26 26 25 24 23 22 20 19 19 17 16 13 10 9
14 15 16 18 18 19 20 20 24 28 29 30 31 33 34 34 33 34 32 32 35 33 33 35 35 35 35 34 32 32 34 32 31 32 30 29 32 31 29 31 33 31 31 31 30 30 29 28 28 27 26 25 25 24 23 21 21 20 19 18 15 11 9
15 17 18 19 20 19 19 19 23 28 31 32 34 34 34 33 34 35 34 34 35 34 34 35 35 34 34 33 32 32 33 33 32 32 30 29 29 28 27 30 31 30 30 31 31 30 29 28 27 27 26 26 25 25 24 23 22 21 20 18 15 11 10
16 16 16 17 17 16 17 18 22 28 31 33 34 34 33 34 34 35 35 35 36 37 36 36 34 33 33 33 32 31 33 35 33 32 30 27 26 27 28 29 30 31 31 31 31 30 30 28 27 27 26 26 26 26 26 24 23 22 20 18 14 11 11
14 15 15 16 16 17 18 20 25 31 33 34 35 34 33 35 35 35 35 34 35 35 34 34 34 32 32 33 31 30 32 34 34 33 31 28 27 30 31 31 30 31 31 31 31 31 30 29 28 27 27 26 25 25 25 25 25 24 22 19 15 11 12
13 14 15 16 16 18 19 21 25 31 33 32 33 32 33 35 35 35 35 34 35 35 34 34 34 33 33 33 30 30 33 34 34 34 31 28 29 31 31 31 32 32 30 31 32 31 30 30 29 28 27 26 25 24 25 25 25 25 23 21 17 13 12
14 14 15 17 17 18 19 19 22 27 29 29 30 31 34 36 35 36 36 35 36 35 35 36 35 33 33 32 31 33 34 33 33 33 31 28 29 30 30 30 32 33 31 31 31 32 31 30 30 29 28 27 26 26 25 25 25 25 24 23 21 17 14
15 14 15 17 17 18 17 17 20 23 26 29 30 32 34 34 34 36 36 35 35 35 35 36 35 33 34 34 33 33 33 31 30 31 31 29 29 29 29 29 30 32 33 31 29 30 32 31 30 30 29 28 27 27 26 25 25 25 24 24 24 22 20
12 12 13 15 15 15 14 14 17 18 20 25 27 28 31 32 33 34 34 34 35 36 36 35 33 33 34 35 34 32 31 30 30 29 30 30 29 28 28 27 26 30 33 31 27 27 31 32 30 30 29 28 28 28 28 27 26 25 25 25 25 24 23
7 8 9 12 13 12 13 15 16 15 17 21 25 27 30 31 32 33 34 35 35 35 35 34 33 32 34 34 33 30 30 30 30 29 30 30 29 28 28 26 24 27 31 30 27 26 29 31 31 30 30 29 29 29 29 28 28 27 26 25 25 25 24
5 6 8 11 13 13 14 14 14 14 14 19 26 28 29 29 31 32 33 34 34 33 34 34 32 32 32 33 32 30 31 31 30 30 31 31 30 28 28 27 25 25 28 29 28 26 26 28 30 31 31 31 30 30 30 29 29 29 28 26 25 25 25
6 7 8 10 10 11 12 12 13 15 15 20 27 29 29 30 32 32 31 33 33 33 33 33 32 32 32 33 32 30 31 32 32 32 31 31 31 28 27 27 26 26 27 28 28 27 26 26 27 30 32 32 31 31 31 30 30 30 29 28 27 27 27
7 8 10 10 11 12 13 13 14 15 16 20 26 28 28 30 31 31 31 32 32 32 32 32 32 32 32 33 32 30 33 35 34 33 31 31 32 31 28 28 28 28 28 29 28 28 27 25 25 28 30 31 31 30 30 30 31 30 30 30 29 28 28
8 9 10 12 13 13 14 15 15 15 16 20 24 26 27 28 29 28 29 31 32 32 32 32 32 33 33 32 31 33 37 38 35 33 32 32 34 35 31 29 29 29 29 30 31 29 27 26 24 25 26 27 28 29 28 29 30 31 31 30 30 29 27
10 12 12 12 14 15 16 16 16 16 16 17 21 25 27 27 28 29 31 32 32 32 32 32 33 34 33 32 33 37 40 40 38 35 33 33 36 37 34 31 29 30 30 31 32 30 27 26 25 23 24 25 26 27 27 28 31 32 32 31 30 29 26
12 14 14 14 14 15 16 17 16 15 16 18 21 25 27 27 28 31 32 32 32 32 32 32 33 34 33 33 35 40 40 39 37 35 33 34 35 35 36 34 31 31 32 32 32 30 28 27 26 25 24 23 24 25 25 29 32 34 34 33 32 29 26
13 14 15 16 15 14 16 17 16 17 19 21 25 27 27 26 28 30 32 32 34 33 32 32 34 35 34 31 33 38 38 35 34 33 33 34 34 35 37 36 34 33 33 32 31 30 28 27 27 27 26 24 23 24 25 28 32 34 34 34 33 32 28
14 15 15 16 16 15 16 17 17 20 21 23 28 31 31 31 32 32 32 32 32 32 31 32 32 33 31 29 31 35 36 33 33 33 33 34 36 36 36 36 34 33 32 31 31 30 29 28 27 27 27 25 25 25 25 26 29 33 35 34 33 32 31
14 14 15 15 16 16 16 14 15 18 21 25 30 31 31 32 31 28 27 28 30 31 31 30 29 29 29 28 30 33 34 33 33 33 33 35 36 35 34 34 33 32 31 30 29 28 28 28 27 27 28 27 27 27 26 26 29 32 33 34 33 32 31
12 12 13 13 14 14 14 14 14 15 19 25 28 26 26 27 27 25 26 29 31 30 29 28 27 28 28 28 29 32 33 33 33 32 32 34 35 34 32 32 31 31 30 28 27 27 28 29 28 28 28 28 28 27 26 28 30 32 33 33 33 31 31
12 12 12 12 12 12 12 14 15 17 20 24 26 26 26 27 28 27 27 30 29 28 28 28 26 27 28 29 30 32 33 33 32 31 31 31 32 31 30 29 29 30 30 28 26 25 26 27 28 27 27 28 28 26 26 28 30 33 34 34 32 31 30
13 13 12 11 10 10 10 12 15 17 19 22 24 26 27 28 28 27 27 28 27 26 27 27 27 28 29 30 30 31 32 31 31 30 30 29 29 29 28 28 29 29 29 27 25 23 23 25 26 26 26 27 27 26 27 28 30 33 34 33 32 31 31
11 11 10 7 7 11 12 14 17 19 21 21 21 23 25 26 27 27 26 26 27 27 27 28 28 29 29 29 30 29 30 30 30 30 29 29 28 28 28 28 28 28 28 27 26 25 24 24 24 24 25 26 26 27 27 28 29 32 34 33 32 31 31
11 11 10 6 3 10 14 17 19 21 23 22 21 23 26 26 26 26 25 25 27 28 27 28 29 29 30 30 30 29 30 30 31 31 30 29 29 29 28 28 28 28 27 26 26 25 24 23 23 23 24 25 26 28 29 28 27 30 32 33 33 32 32
12 12 11 9 4 5 14 19 20 21 23 23 25 28 29 28 27 26 24 25 26 27 28 29 30 30 31 31 29 29 30 30 30 31 30 29 30 30 30 29 28 26 25 24 24 24 23 23 23 22 23 23 24 26 28 28 26 28 30 32 32 32 32
13 14 12 11 10 4 11 17 20 21 23 27 30 31 30 29 26 24 23 24 26 29 29 30 30 30 29 28 27 28 28 28 29 31 30 29 30 29 28 26 25 24 24 24 23 23 23 22 22 22 22 22 23 24 25 26 27 28 30 32 32 31 31
15 16 14 14 14 10 4 8 13 17 21 27 31 30 30 29 25 23 24 24 27 30 28 28 31 30 27 26 26 26 26 26 27 29 29 27 26 25 25 24 24 23 23 23 22 22 22 22 22 21 20 21 22 22 23 25 27 28 29 31 32 31 31
15 15 15 15 15 12 8 6 7 10 15 22 26 27 29 29 24 22 24 25 27 29 27 29 33 31 27 26 26 24 25 26 26 28 27 25 25 26 26 24 23 22 22 22 22 21 21 23 23 23 22 21 22 23 23 25 28 30 31 31 32 32 32
14 15 15 15 16 14 11 8 8 8 9 13 17 20 24 25 23 22 22 23 27 28 28 31 33 29 26 26 25 24 25 25 27 28 27 25 26 27 26 24 23 23 23 24 23 22 22 23 23 23 23 23 23 23 24 25 27 30 32 32 32 32 32
14 15 16 17 19 17 13 11 11 11 10 9 10 14 17 19 20 18 17 21 27 30 30 31 31 29 27 25 25 25 25 24 25 27 27 26 26 27 25 23 23 23 24 25 25 24 23 24 23 23 23 23 23 23 23 22 23 25 28 31 31 31 31
15 17 18 19 21 20 15 14 14 14 14 13 11 11 12 14 16 16 16 20 26 29 30 30 30 29 27 24 24 25 25 23 23 24 25 25 25 25 25 24 23 22 23 24 25 25 24 24 23 23 22 22 23 23 21 18 19 20 23 26 29 29 29
15 16 18 19 21 21 17 15 15 15 15 14 13 12 12 13 15 15 16 19 22 25 28 29 29 28 27 25 24 25 24 23 22 22 22 23 23 23 23 23 22 21 22 22 23 24 24 24 23 23 23 22 22 21 19 17 17 18 19 21 24 28 29
13 14 17 19 21 21 19 16 15 15 15 13 13 14 14 14 13 12 12 13 16 21 25 26 27 27 26 26 26 26 25 23 22 21 20 20 21 21 21 22 21 21 21 22 23 24 24 23 23 23 22 21 20 18 17 16 16 17 18 20 23 24 25
15 15 17 19 20 19 19 17 15 15 15 13 13 14 15 14 14 13 12 11 12 15 17 18 21 23 23 23 22 23 24 22 21 20 18 17 20 21 21 22 22 21 21 21 22 24 23 21 21 21 20 19 19 17 16 15 16 19 22 24 24 22 21
16 17 18 20 19 18 18 17 15 15 14 13 14 15 15 14 13 13 12 11 11 13 14 14 14 15 17 17 15 17 19 18 17 18 17 19 22 23 21 20 20 21 21 20 21 25 26 24 22 20 19 19 18 18 19 17 17 20 22 22 23 23 22
16 16 17 18 18 18 17 16 16 15 14 13 14 14 14 14 13 12 11 10 10 11 12 12 11 10 10 11 11 12 13 13 13 15 17 20 24 24 21 18 16 17 20 20 21 23 26 27 26 25 23 21 18 20 22 22 21 22 21 19 18 20 21
19 19 18 18 18 18 17 16 15 14 13 13 13 14 14 14 14 12 10 9 8 7 8 9 8 7 7 7 8 9 9 9 11 12 14 17 19 20 19 16 12 10 12 15 18 20 22 25 26 26 26 25 22 22 23 23 22 21 19 16 15 16 17
Wind_Direction
198 198 195 193 191 194 196 192 189 190 191 189 189 191 191 191 190 188 188 190 192 194 195 198 199 199 201 203 205 206 206 207 207 208 210 212 214 215 218 220 222 225 227 229 232 235 237 240 241 242 242 244 247 249 251 252 253 252 255 259 254 246 246
198 200 196 193 193 195 195 191 188 189 190 191 191 191 192 191 188 187 187 189 192 194 194 196 198 200 202 203 204 205 206 207 208 209 209 212 216 218 221 222 223 226 230 231 234 237 240 242 243 243 243 244 247 250 252 253 254 252 252 256 254 243 240
199 200 197 195 196 196 192 187 188 190 192 192 191 192 192 189 187 187 187 189 192 194 194 196 198 200 202 202 202 204 206 207 208 209 210 213 217 218 219 223 224 226 229 232 235 237 240 242 243 243 243 244 247 250 253 255 256 254 252 253 252 243 239
200 199 196 198 197 193 189 186 188 191 193 194 193 192 191 187 185 187 189 190 191 193 194 196 198 199 201 201 201 202 205 206 207 209 210 212 215 214 214 219 222 223 227 231 234 236 238 240 242 243 244 245 247 249 252 254 256 256 253 251 248 241 240
201 198 196 198 196 191 188 188 190 191 194 195 193 191 190 188 187 189 190 190 192 195 195 196 197 198 200 201 200 202 204 207 208 209 209 209 209 211 214 217 219 221 225 230 232 234 237 239 240 242 244 245 247 247 250 252 254 255 252 247 243 238 238
199 196 196 199 197 193 190 191 192 192 194 194 191 189 188 188 190 192 192 190 192 194 194 195 195 196 199 200 200 200 203 205 208 209 208 207 208 213 216 218 219 221 224 227 231 233 236 238 239 241 244 245 246 245 247 249 250 252 251 247 242 236 237
194 192 198 199 196 196 193 193 195 194 193 192 190 188 186 188 191 192 192 191 191 192 192 193 194 195 198 199 198 200 202 204 207 208 208 207 211 215 217 218 220 222 223 226 230 232 234 236 239 242 244 245 244 245 245 247 248 249 249 248 243 237 237
195 192 197 198 197 196 194 192 194 192 189 188 188 187 187 189 190 190 192 191 190 191 192 193 194 194 196 197 198 201 203 204 205 207 207 206 210 214 215 217 221 223 223 225 229 232 233 236 239 241 244 244 244 246 246 248 249 248 248 248 246 243 239
198 196 198 199 198 197 195 191 188 185 182 182 186 187 187 189 189 190 191 190 190 191 193 194 194 193 194 196 198 201 202 201 202 204 205 205 209 212 213 215 219 222 225 225 227 231 234 236 238 240 243 243 244 246 247 248 249 247 248 249 249 247 244
199 198 196 198 199 196 192 183 176 177 178 180 183 185 186 189 189 189 189 188 190 191 192 192 192 191 193 196 199 200 199 199 200 200 202 205 208 211 212 212 214 219 224 224 222 227 234 236 236 238 241 241 243 246 247 248 248 248 248 250 251 250 249
209 201 193 194 194 186 181 177 175 179 181 180 182 185 185 186 187 186 188 189 190 190 189 189 190 190 192 195 197 198 198 199 199 199 202 205 208 210 210 209 209 214 221 221 219 223 230 234 234 235 238 240 241 244 246 247 247 247 249 250 251 252 251
225 209 201 196 188 181 181 182 181 183 183 182 186 187 184 183 185 186 187 188 189 188 187 188 189 189 190 193 195 196 197 198 198 200 202 204 206 208 207 207 208 211 217 219 218 220 224 229 232 233 236 239 240 242 245 247 247 248 250 249 250 253 254
217 206 205 200 189 183 184 185 183 183 184 184 187 188 185 184 186 186 185 185 187 188 186 186 186 186 187 191 193 194 195 196 198 200 202 203 205 205 205 207 208 210 215 218 218 219 221 223 227 232 236 238 239 240 243 245 246 247 249 249 248 251 253
229 213 202 194 188 186 187 189 188 185 184 185 186 186 184 184 187 186 183 183 185 186 185 184 183 184 186 189 191 193 195 197 199 200 201 202 205 206 205 205 208 210 214 217 218 220 221 220 222 228 233 235 236 238 240 242 244 245 247 248 247 248 250
259 242 218 197 189 190 193 192 190 186 183 183 183 181 180 182 183 181 179 180 183 185 184 181 181 184 186 188 190 195 199 200 200 201 201 202 207 209 206 205 208 210 213 217 220 220 221 221 220 222 227 229 232 234 235 237 241 242 243 244 245 246 246
261 251 239 215 195 194 197 194 190 184 179 179 181 179 179 180 179 178 180 181 183 185 184 181 181 184 187 189 193 199 202 202 202 202 202 204 208 210 209 208 209 211 214 218 221 221 220 220 219 220 222 224 226 229 231 234 239 242 243 243 243 243 242
261 249 244 233 212 199 197 196 188 178 176 181 182 180 180 179 178 180 183 183 183 184 183 182 183 185 188 191 196 200 202 202 202 203 203 206 209 210 212 212 212 214 217 219 221 221 220 219 219 220 222 223 224 225 227 233 240 243 245 245 244 242 240
268 254 246 239 227 211 200 195 183 176 181 185 183 182 181 177 174 179 184 184 184 183 183 184 186 188 190 192 194 197 199 199 200 202 203 206 208 210 213 214 214 217 218 218 220 220 219 219 220 222 224 223 224 225 226 232 241 245 246 247 246 244 240
273 263 252 241 233 220 206 196 185 182 184 184 183 185 184 178 177 181 183 180 178 179 182 185 187 188 190 191 191 194 196 196 197 200 202 205 208 210 212 213 213 215 216 216 219 219 219 221 221 223 224 223 224 226 227 232 240 245 247 247 247 246 243
286 275 263 248 235 221 204 191 186 183 181 181 183 183 180 178 179 179 176 171 171 176 179 180 182 184 186 189 190 193 194 195 196 199 201 204 207 207 208 210 211 213 214 216 217 217 219 220 220 222 224 224 226 228 230 233 238 244 247 247 246 246 244
302 292 273 250 229 215 195 181 180 179 178 180 181 176 172 174 175 172 170 170 173 178 179 177 179 183 185 188 190 192 194 195 197 198 200 203 205 205 207 209 210 211 213 214 215 217 219 220 221 223 225 226 227 229 232 236 239 242 245 247 246 245 244
311 306 284 251 222 204 189 181 181 179 176 176 176 174 171 173 175 173 171 172 174 177 179 178 180 183 186 189 191 193 194 195 196 198 199 200 202 204 205 206 209 211 212 213 215 218 219 221 222 223 225 226 227 229 233 237 239 242 244 246 246 243 241
316 314 297 262 220 185 170 169 168 166 165 167 171 173 171 172 172 168 167 171 173 172 174 179 183 186 189 192 193 194 194 194 195 197 198 198 200 202 204 206 209 211 211 212 214 216 218 220 222 223 225 227 226 227 232 236 240 242 243 245 244 240 239
330 329 319 283 210 169 157 158 156 154 157 162 166 167 163 164 165 162 162 168 171 172 175 181 187 189 191 193 193 193 193 194 195 197 197 198 200 202 204 206 209 211 211 211 214 217 219 221 223 224 225 227 226 227 231 236 240 243 244 244 242 239 238
351 351 347 334 210 169 157 150 148 150 154 157 161 163 161 161 162 163 165 169 171 175 181 187 189 190 191 192 193 193 193 194 196 197 198 199 201 203 205 207 210 211 210 212 214 217 220 221 222 224 225 226 228 230 233 236 239 243 244 244 242 239 238
7 6 5 5 3 155 149 143 143 151 157 160 163 165 166 165 164 167 170 170 173 180 187 190 190 190 191 192 193 193 194 195 196 198 200 201 203 205 206 208 209 209 209 210 213 217 220 221 221 224 226 228 229 231 234 235 237 241 244 244 242 239 237
19 22 22 21 21 66 148 152 153 158 163 165 164 165 166 166 167 169 167 168 177 188 191 189 188 188 188 189 191 193 194 196 198 200 202 204 205 206 207 207 208 207 208 210 213 215 218 220 221 225 228 230 230 231 233 234 236 238 242 245 243 240 238
22 29 30 30 30 35 95 146 153 157 162 164 166 167 168 167 167 167 167 174 187 192 189 188 188 187 186 187 190 193 194 196 199 200 203 205 205 204 205 207 208 208 208 209 211 213 216 218 221 224 228 230 232 233 232 234 238 239 241 244 245 243 239
17 25 27 32 34 33 44 78 114 139 156 165 168 168 170 170 168 169 174 184 191 189 187 189 191 190 189 190 192 193 194 196 198 200 202 203 202 203 205 206 205 205 206 207 208 211 217 221 223 227 231 235 237 237 235 235 239 242 243 244 246 245 243
11 16 19 28 34 37 47 66 80 99 130 154 162 165 169 170 170 173 179 187 189 187 187 190 190 189 188 189 191 192 195 197 199 201 203 203 202 204 206 204 203 204 207 209 210 214 221 226 226 228 232 236 238 240 238 235 238 243 245 246 246 246 245
6 9 12 19 24 30 47 70 80 85 90 104 133 153 164 168 169 170 174 181 185 187 188 188 188 188 188 189 192 194 196 199 200 201 203 203 203 204 205 204 203 206 209 213 214 218 224 227 226 226 229 233 236 239 237 233 234 239 243 246 246 246 246
4 9 13 16 16 16 29 55 69 76 76 74 91 126 146 158 162 163 167 175 182 186 188 187 187 189 189 189 192 195 196 199 201 202 204 204 204 205 206 206 204 204 208 212 214 217 222 225 225 225 227 232 235 237 234 229 227 230 237 243 245 245 245
2 6 9 14 16 14 17 33 48 60 66 63 65 85 109 131 145 152 162 170 178 184 187 187 188 190 192 194 195 196 197 199 201 203 204 205 205 206 207 207 205 203 204 206 210 217 222 224 226 227 228 231 235 234 230 226 224 224 227 234 240 243 243
360 2 3 7 14 18 22 27 31 43 53 53 54 67 85 100 112 126 144 157 170 179 182 184 188 191 195 197 197 199 200 201 202 202 201 201 203 206 207 208 207 208 208 206 207 213 219 223 225 225 224 226 228 229 228 227 224 223 224 227 233 236 236
358 2 5 5 9 19 27 27 26 35 43 43 48 58 68 77 86 99 115 130 152 164 168 176 184 189 194 197 198 201 204 204 204 204 201 198 199 202 206 208 208 211 214 213 211 211 214 217 219 219 219 222 225 225 227 227 227 232 238 239 239 235 229
355 0 5 6 8 17 26 27 26 30 34 35 43 52 57 62 71 84 95 108 131 144 146 151 160 171 182 187 190 196 200 200 201 202 202 200 199 200 202 205 208 210 213 215 216 217 218 219 222 223 224 225 226 226 230 232 234 241 247 248 246 242 236
358 2 5 7 9 13 19 24 25 26 25 23 31 41 44 48 56 66 78 90 111 131 138 140 140 144 158 169 175 182 184 186 192 196 198 200 199 196 194 195 200 207 211 214 218 220 221 223 227 230 231 230 231 233 236 238 238 243 250 251 247 244 238
7 8 6 7 13 15 15 16 21 26 23 19 25 33 34 36 42 50 62 73 88 114 135 141 138 133 136 145 158 167 168 171 180 186 188 190 190 189 186 180 174 181 198 209 216 219 221 223 227 231 233 233 234 237 240 240 238 240 246 246 241 235 228